Temperature
16 16 17 17 17 17 17 17 17 17 17 17 17 17 17 17 17 17 17 17 17 17 17 17 17 18 18 18 18 18 18 18 18 18 18 18 18 18 18 18 18 18 18
16 16 17 17 17 17 17 17 17 17 17 17 17 17 17 17 17 17 17 17 17 17 17 17 17 17 17 18 18 18 18 18 18 18 18 18 18 18 18 18 18 18 18
16 16 16 17 17 17 17 17 17 17 17 17 17 17 17 17 17 17 17 17 17 17 17 17 17 17 17 17 17 18 18 18 18 18 17 17 17 18 18 18 18 18 18
16 16 16 16 16 17 17 17 17 17 17 17 17 17 16 16 16 16 16 17 17 17 17 17 17 17 17 17 17 17 17 18 18 17 17 17 17 18 18 18 18 18 18
16 16 16 16 16 16 16 17 17 17 17 16 16 16 16 16 16 16 16 16 16 17 17 17 17 17 17 17 17 17 17 17 17 17 17 17 17 18 18 18 18 18 18
16 16 16 16 16 16 16 16 16 16 16 16 16 16 16 16 16 16 16 16 16 16 16 16 17 17 17 17 17 17 17 17 17 17 17 17 17 17 18 18 18 18 18
16 16 16 16 16 16 16 16 16 16 16 16 16 16 16 16 16 16 16 16 16 16 16 16 16 16 16 17 17 17 17 17 16 16 16 16 17 17 17 17 18 18 18
16 16 16 16 16 16 16 16 16 16 16 16 16 16 15 15 15 15 15 16 16 16 16 16 16 16 16 16 16 17 17 17 17 17 16 16 17 17 17 17 17 17 18
16 16 16 16 16 16 16 16 16 16 16 16 16 16 16 16 15 15 15 15 15 15 16 16 16 16 16 16 16 16 17 17 16 16 16 16 17 17 17 17 17 17 17
16 16 16 16 16 16 16 16 16 16 16 16 16 16 16 15 15 15 15 15 15 15 15 16 16 16 16 16 16 16 16 16 16 16 16 16 17 17 17 17 17 17 17
16 16 16 16 16 16 16 16 16 16 16 16 16 16 15 15 15 15 15 15 15 16 16 16 16 16 16 16 16 16 16 16 16 16 16 16 16 16 17 17 17 17 17
17 16 16 16 16 16 16 16 16 16 15 15 15 15 15 15 15 15 16 16 16 16 16 16 16 16 16 16 16 16 16 16 16 16 16 16 16 16 16 16 17 17 17
17 16 16 16 16 16 16 16 16 16 15 15 15 15 16 16 15 15 15 15 15 15 15 15 16 16 16 16 16 16 16 16 16 16 16 16 16 16 16 16 16 17 17
17 17 16 17 16 16 16 16 16 16 15 15 16 16 16 16 15 15 15 15 15 15 15 15 15 16 16 16 16 16 16 16 16 16 16 16 16 16 16 16 16 16 16
17 17 17 16 17 16 16 16 16 16 16 16 16 15 15 16 15 15 15 15 15 15 15 15 15 15 16 16 16 16 16 16 16 16 15 16 16 16 16 16 16 16 16
17 17 17 16 16 16 16 16 16 16 16 15 15 15 15 15 15 15 15 15 15 15 15 15 15 15 15 15 15 15 15 15 15 15 15 15 16 16 16 16 16 16 16
18 17 17 16 16 16 16 16 16 16 15 15 15 15 15 15 15 15 15 15 15 15 15 15 15 15 15 15 15 15 15 15 15 15 15 15 15 15 15 15 15 16 16
18 17 17 17 16 16 16 16 16 16 15 15 15 15 15 15 15 15 15 15 15 15 15 15 15 15 15 15 15 15 15 15 15 15 15 15 15 15 15 15 15 15 16
18 17 17 17 16 16 16 16 16 16 15 15 15 15 15 15 15 15 15 15 15 15 15 15 15 15 15 15 15 15 15 14 14 14 15 15 15 15 15 15 15 15 15
18 17 17 17 17 16 16 16 16 16 15 15 15 15 15 15 15 15 15 15 15 15 15 15 15 15 15 15 15 14 14 14 14 14 14 14 14 14 14 14 14 15 15
18 17 17 17 17 16 16 16 16 15 15 15 15 15 15 15 15 15 15 15 15 15 15 15 14 14 14 14 15 15 14 14 14 14 14 14 14 14 14 14 14 14 14
18 17 17 17 17 16 16 16 16 16 15 15 15 15 15 15 15 15 15 15 15 15 14 14 14 14 14 14 15 15 15 15 14 14 14 14 14 14 14 14 14 14 14
18 18 18 17 17 17 17 16 16 16 16 15 15 15 15 15 15 15 15 15 15 14 14 14 14 14 14 14 14 15 16 16 15 14 14 14 13 13 13 13 13 13 13
18 18 18 17 17 17 17 16 16 16 16 15 15 15 15 15 15 15 15 15 15 14 14 14 14 14 14 14 14 14 14 14 15 15 14 13 13 13 13 13 13 13 13
19 18 18 17 17 17 17 17 16 16 16 16 15 15 15 15 15 15 15 15 15 14 14 14 14 14 14 14 14 13 13 14 14 14 14 13 13 13 13 13 13 13 13
19 18 18 18 17 17 17 17 16 16 16 16 16 15 15 15 15 15 15 15 14 14 14 14 14 14 14 14 13 13 13 13 13 13 14 13 13 13 12 12 12 12 12
Wind_Speed
4 6 8 8 10 12 12 13 12 12 13 12 11 11 11 11 10 11 11 11 11 10 10 9 9 9 9 8 8 8 8 7 7 7 6 6 6 6 6 6 4 5 7
5 7 9 9 11 12 12 13 13 13 13 12 12 11 11 11 11 11 11 11 10 10 10 9 8 8 8 8 8 7 7 7 7 6 4 5 7 7 7 8 8 8 7
7 8 10 11 12 12 13 13 13 13 12 12 12 12 11 11 11 10 10 10 10 9 9 8 8 8 8 7 7 7 7 7 6 4 1 4 7 9 8 9 9 8 7
9 9 11 12 12 13 13 13 13 13 13 12 12 12 11 10 10 10 9 9 9 8 8 8 8 8 8 7 7 6 6 6 5 3 3 6 7 10 8 8 9 8 7
10 10 12 11 12 12 12 13 13 13 13 12 12 11 11 10 10 9 9 9 8 8 8 8 8 8 8 8 7 7 6 6 3 2 6 6 7 9 9 9 9 8 8
10 11 12 11 12 12 12 12 12 12 12 11 11 11 10 10 9 9 8 8 8 8 9 9 8 8 8 8 7 7 6 3 0 5 5 6 7 9 9 9 9 9 8
10 11 12 11 12 12 12 11 11 11 11 10 10 10 9 9 9 8 8 8 8 8 8 8 8 8 8 7 7 7 6 3 3 5 5 6 8 8 9 9 9 8 8
9 10 12 12 12 12 11 10 10 10 10 10 9 9 9 9 9 9 8 8 8 8 8 8 8 7 7 8 8 7 5 4 4 4 5 6 8 7 8 8 8 8 8
9 9 9 10 11 10 10 10 10 9 9 9 9 9 8 8 8 8 8 8 8 8 8 8 7 7 8 7 7 7 5 4 4 4 5 7 8 7 7 7 7 7 7
8 8 8 8 8 8 8 9 9 9 9 8 8 8 6 5 6 5 6 8 8 8 8 8 7 7 7 7 7 6 3 1 4 5 5 8 8 7 7 7 7 7 7
7 7 7 7 7 6 7 7 7 7 6 4 6 5 2 5 6 6 10 9 8 8 8 8 7 5 4 6 6 3 1 3 5 5 6 9 7 7 7 7 7 7 7
8 7 6 6 6 6 5 6 5 6 6 6 6 6 5 6 6 5 7 6 6 5 5 6 3 1 1 4 5 1 3 4 4 5 8 9 8 7 7 7 7 8 8
7 6 6 6 6 5 5 5 5 5 5 6 7 6 5 5 4 5 4 4 4 3 4 3 1 4 4 4 3 4 5 4 4 5 8 10 9 8 8 8 8 8 8
7 6 6 5 6 6 6 5 5 5 5 5 6 7 6 5 4 5 4 5 4 4 4 3 3 4 5 4 4 5 5 4 4 5 8 10 10 9 9 9 9 9 9
7 6 5 4 5 6 6 5 5 5 5 6 5 6 7 5 4 4 5 4 4 4 3 3 3 5 4 5 5 5 5 5 5 5 7 10 10 9 9 9 9 9 9
7 7 5 4 5 5 5 5 5 5 5 5 6 6 7 6 5 4 5 5 5 5 4 3 4 4 4 4 5 5 5 5 5 5 5 7 10 11 11 11 11 11 10
7 6 5 4 4 4 5 5 5 5 5 6 6 7 7 7 6 5 5 5 5 4 4 4 4 3 4 4 4 5 6 6 5 6 6 5 5 9 11 11 12 12 12
6 6 6 4 4 5 4 4 5 5 5 5 5 6 7 7 7 5 5 5 5 5 4 4 4 3 4 4 4 4 5 5 6 6 6 6 6 6 8 10 11 12 13
6 7 6 5 5 5 5 5 5 5 5 5 5 6 6 7 7 6 5 5 5 4 4 4 4 3 4 4 4 4 5 5 6 6 7 7 7 6 6 7 8 11 13
6 6 6 6 6 6 5 4 4 4 4 4 5 5 6 6 6 6 5 5 5 4 4 4 4 3 3 3 4 5 5 5 5 6 6 7 8 8 8 7 6 7 10
7 7 7 7 7 6 4 3 3 3 3 3 4 5 5 6 6 6 5 6 5 4 4 4 3 4 3 2 3 4 4 5 6 5 6 6 7 8 8 8 8 7 6
9 8 8 7 7 6 4 3 2 3 3 3 3 4 5 5 6 5 6 5 5 4 4 5 3 2 3 2 1 0 2 3 4 5 5 6 6 7 8 8 8 8 8
10 9 8 8 7 7 6 4 4 3 3 3 3 3 3 4 5 5 5 5 5 4 4 4 3 3 2 2 3 3 2 2 2 3 5 5 6 6 6 8 8 9 9
11 10 9 8 7 7 7 6 5 3 2 2 2 2 3 3 4 4 4 5 5 4 4 4 4 3 2 2 2 3 4 3 2 0 2 4 5 6 7 6 8 9 9
11 10 9 9 8 7 7 6 5 3 3 3 3 3 2 3 3 3 4 4 4 4 4 4 4 4 3 3 2 2 2 1 2 2 1 2 3 4 5 6 6 8 8
10 10 9 9 8 8 8 7 6 5 4 4 4 3 2 2 2 3 2 3 3 3 4 4 3 4 3 3 3 2 2 2 2 2 2 2 2 3 4 5 5 6 7
Wind_Direction
71 70 76 85 91 91 90 90 90 91 89 87 84 82 80 80 79 78 76 70 65 61 59 58 59 58 57 58 58 61 62 65 64 65 66 63 59 54 51 39 15 69 70
89 83 85 85 90 90 88 85 86 87 86 84 81 79 77 77 77 76 74 71 66 60 58 56 55 56 57 55 54 57 58 62 63 64 66 90 72 56 52 43 29 48 58
95 92 91 86 88 88 87 85 83 85 86 82 80 76 74 71 72 72 72 69 66 62 59 57 54 55 57 56 56 56 58 61 57 55 355 77 82 64 52 47 49 50 51
96 91 86 87 88 88 88 86 84 84 83 80 76 73 72 71 70 70 68 65 62 61 59 56 53 55 55 53 57 58 62 63 51 342 60 62 67 63 51 49 48 48 49
96 91 88 87 88 89 88 86 84 83 81 78 76 72 71 70 68 66 65 63 61 58 55 52 51 53 53 52 56 59 64 67 53 25 58 61 64 58 50 50 46 46 46
100 96 92 88 89 88 85 83 82 80 78 76 73 69 66 64 63 61 60 60 59 57 54 51 51 54 52 52 55 59 64 55 9 66 61 60 65 61 52 50 47 45 43
103 100 97 90 88 85 83 80 78 75 73 71 68 64 60 58 57 56 54 53 54 53 51 49 51 53 53 52 56 58 61 20 59 72 68 66 63 57 52 49 46 42 40
105 103 103 96 89 83 79 77 75 73 71 68 65 62 57 53 51 50 50 51 53 54 52 49 49 51 54 55 58 60 51 343 85 71 69 69 62 53 50 47 42 40 37
107 105 105 108 104 96 81 72 70 68 66 64 60 57 54 51 47 44 48 50 54 56 53 51 50 53 56 56 57 58 56 14 53 62 69 67 62 54 51 44 37 35 33
110 109 106 104 101 100 95 78 69 67 63 62 61 55 55 77 74 57 60 54 52 54 51 49 49 54 57 59 57 52 43 272 59 66 58 65 57 54 51 44 35 33 30
110 109 108 104 100 93 90 90 89 85 69 75 80 68 35 51 58 69 53 51 48 50 51 50 48 51 65 89 73 51 333 52 68 57 57 53 49 52 48 41 35 31 27
119 110 108 106 100 93 86 86 75 74 65 54 49 48 44 52 50 51 85 67 59 57 72 56 43 97 314 81 98 169 56 59 60 61 62 50 50 50 42 38 33 29 26
121 116 111 107 98 90 87 80 72 68 63 58 48 49 42 47 54 50 54 76 66 50 58 68 58 52 56 56 47 55 46 42 55 58 61 51 49 47 41 37 32 27 22
126 119 115 107 101 94 88 83 77 71 60 55 45 40 38 40 40 46 43 42 45 52 45 45 44 54 54 61 56 56 59 49 51 61 64 53 47 43 38 34 31 25 19
134 130 117 110 96 93 86 83 81 71 56 60 45 36 39 38 44 47 49 44 44 45 51 45 50 53 49 52 51 50 52 50 50 60 72 62 49 41 36 32 29 23 16
144 135 131 127 111 105 100 91 81 76 73 60 51 42 40 44 44 43 54 50 44 41 42 50 64 64 58 53 53 53 47 53 51 59 62 73 65 49 39 35 30 25 18
147 143 141 135 123 110 98 90 85 75 69 62 53 43 46 45 43 48 47 50 43 43 50 49 62 60 62 66 65 61 56 49 51 55 53 44 60 69 53 40 34 28 21
158 153 146 147 138 121 112 105 92 78 70 64 56 46 43 44 44 48 47 47 41 43 51 56 47 58 62 58 61 59 61 56 52 51 51 53 42 41 60 50 39 31 26
166 161 157 154 147 135 127 115 98 86 72 64 58 49 40 42 42 50 43 37 43 46 49 57 56 52 65 67 73 66 60 58 52 48 49 45 44 37 42 60 53 41 33
171 166 156 155 156 145 141 128 113 94 83 71 62 53 42 40 41 47 50 42 41 50 53 65 69 62 62 64 75 73 69 72 60 46 44 47 41 38 35 30 33 50 47
177 174 166 168 165 162 156 153 137 113 99 84 68 60 53 46 43 46 42 45 37 51 50 62 74 83 71 60 95 95 89 70 60 54 42 43 47 39 36 34 26 22 35
184 183 179 177 176 175 168 156 136 117 108 92 81 68 54 50 45 45 49 55 53 58 57 56 56 58 69 26 13 74 126 116 65 54 49 41 38 39 34 31 28 26 22
190 189 187 184 179 180 173 158 144 136 145 132 107 78 56 53 50 44 48 51 52 54 58 49 46 40 51 51 23 349 343 37 74 66 45 43 36 29 31 26 26 25 24
193 191 190 185 183 179 178 184 181 177 153 128 112 102 89 69 60 52 56 53 55 55 59 55 51 38 17 39 51 25 16 15 321 79 76 45 33 30 27 23 23 22 22
190 188 190 184 184 183 186 186 194 183 158 141 134 124 108 88 69 58 55 57 57 59 57 54 50 39 40 26 30 35 41 30 337 330 359 15 34 33 25 21 24 21 21
188 186 187 187 186 187 190 191 194 183 173 161 161 151 140 118 97 78 64 68 64 61 61 55 55 56 46 44 30 27 14 15 9 354 334 348 12 26 23 23 20 21 19
Height
1552 1551 1551 1551 1551 1552 1552 1552 1552 1552 1552 1551 1552 1552 1551 1551 1550 1550 1550 1549 1549 1549 1549 1548 1548 1547 1547 1546 1546 1545 1545 1545 1545 1545 1544 1544 1544 1544 1543 1543 1542 1543 1541
1552 1552 1552 1553 1553 1553 1553 1553 1553 1553 1553 1553 1553 1553 1552 1552 1552 1551 1551 1550 1550 1550 1550 1549 1549 1548 1548 1547 1547 1547 1547 1546 1546 1546 1546 1546 1545 1545 1544 1544 1543 1543 1542
1554 1554 1554 1554 1554 1555 1555 1555 1555 1555 1554 1554 1554 1554 1553 1553 1553 1552 1552 1551 1551 1551 1550 1550 1550 1549 1549 1548 1548 1548 1548 1548 1547 1547 1547 1548 1547 1546 1545 1545 1544 1543 1543
1555 1556 1556 1556 1556 1556 1556 1556 1556 1556 1556 1555 1555 1555 1554 1554 1554 1553 1553 1552 1552 1552 1551 1551 1550 1550 1550 1549 1549 1549 1549 1548 1548 1548 1550 1549 1549 1547 1546 1546 1545 1544 1544
1557 1557 1557 1557 1558 1558 1558 1558 1558 1557 1557 1557 1556 1556 1556 1555 1555 1554 1554 1553 1553 1552 1552 1551 1551 1551 1550 1550 1550 1550 1549 1549 1549 1550 1550 1550 1549 1548 1548 1547 1546 1545 1545
1559 1559 1559 1559 1559 1560 1560 1560 1560 1559 1559 1558 1558 1557 1557 1556 1556 1555 1555 1554 1554 1553 1552 1552 1552 1551 1551 1551 1551 1551 1551 1550 1551 1551 1551 1551 1550 1549 1548 1548 1547 1547 1546
1561 1561 1561 1561 1561 1561 1561 1561 1561 1561 1561 1560 1560 1559 1558 1558 1557 1556 1556 1555 1555 1554 1553 1553 1552 1552 1552 1552 1552 1552 1551 1551 1553 1552 1552 1552 1551 1550 1549 1549 1548 1548 1547
1562 1563 1563 1563 1563 1563 1563 1563 1563 1563 1562 1562 1561 1560 1560 1559 1558 1558 1557 1556 1556 1555 1554 1554 1553 1553 1553 1553 1553 1552 1552 1552 1554 1554 1553 1553 1552 1551 1551 1550 1549 1549 1548
1564 1565 1566 1566 1566 1565 1565 1565 1565 1564 1564 1564 1563 1562 1561 1561 1560 1559 1558 1557 1557 1556 1556 1555 1555 1554 1554 1554 1554 1553 1553 1553 1555 1555 1555 1554 1553 1552 1552 1551 1550 1550 1549
1566 1567 1568 1568 1568 1569 1568 1567 1566 1566 1566 1565 1564 1564 1563 1562 1561 1560 1560 1559 1558 1557 1557 1556 1556 1555 1555 1555 1554 1554 1554 1555 1555 1556 1555 1554 1553 1553 1552 1552 1551 1551 1550
1568 1569 1570 1570 1570 1570 1570 1568 1568 1568 1567 1567 1566 1565 1565 1565 1564 1563 1561 1560 1559 1558 1558 1557 1557 1556 1556 1556 1555 1555 1555 1557 1556 1556 1555 1554 1554 1553 1553 1552 1552 1551 1550
1570 1571 1571 1571 1571 1571 1571 1570 1570 1570 1569 1569 1568 1567 1567 1566 1564 1564 1562 1561 1560 1560 1559 1558 1558 1558 1558 1558 1557 1557 1558 1557 1557 1557 1555 1554 1554 1554 1553 1553 1552 1551 1550
1571 1571 1572 1573 1573 1572 1572 1572 1572 1571 1570 1570 1569 1569 1568 1567 1566 1565 1565 1564 1562 1562 1561 1560 1560 1560 1560 1559 1559 1559 1558 1558 1557 1557 1556 1555 1555 1554 1554 1553 1552 1551 1550
1572 1573 1573 1574 1574 1574 1573 1573 1573 1573 1572 1572 1571 1570 1569 1568 1567 1566 1566 1564 1564 1563 1562 1562 1561 1561 1561 1560 1560 1560 1559 1558 1558 1558 1556 1555 1555 1555 1554 1553 1552 1551 1550
1573 1574 1574 1575 1575 1575 1574 1574 1575 1574 1574 1573 1572 1572 1571 1570 1569 1568 1567 1565 1565 1564 1564 1563 1563 1562 1561 1561 1561 1560 1560 1559 1559 1558 1557 1556 1555 1555 1554 1553 1552 1551 1550
1574 1575 1575 1576 1576 1576 1576 1576 1576 1575 1575 1574 1574 1573 1572 1571 1570 1569 1569 1567 1566 1565 1565 1564 1564 1563 1562 1562 1561 1560 1560 1560 1560 1559 1558 1557 1556 1555 1554 1553 1552 1551 1550
1575 1576 1576 1577 1577 1577 1577 1577 1577 1576 1576 1576 1575 1574 1573 1572 1572 1571 1570 1569 1567 1566 1566 1565 1565 1564 1563 1562 1562 1561 1561 1560 1560 1560 1559 1558 1557 1556 1554 1553 1552 1551 1549
1575 1576 1577 1577 1578 1578 1578 1578 1578 1578 1577 1577 1576 1575 1575 1574 1573 1571 1571 1569 1568 1568 1567 1566 1565 1565 1564 1563 1563 1562 1562 1561 1561 1561 1560 1559 1558 1557 1555 1553 1552 1551 1549
1575 1576 1577 1578 1578 1578 1578 1578 1579 1578 1578 1578 1577 1576 1575 1575 1574 1573 1571 1570 1569 1568 1567 1567 1566 1566 1565 1564 1564 1563 1563 1562 1562 1561 1561 1560 1558 1557 1556 1554 1553 1551 1549
1575 1576 1577 1577 1578 1579 1579 1580 1579 1579 1579 1579 1578 1577 1576 1575 1574 1573 1572 1571 1570 1569 1568 1567 1566 1566 1566 1565 1565 1564 1564 1563 1563 1562 1562 1560 1559 1558 1556 1555 1554 1552 1550
1574 1576 1577 1578 1578 1579 1580 1580 1580 1580 1580 1579 1579 1578 1577 1576 1575 1574 1573 1572 1571 1570 1569 1569 1568 1567 1567 1566 1567 1566 1566 1565 1564 1563 1563 1562 1560 1559 1557 1556 1554 1552 1551
1574 1575 1577 1578 1578 1579 1579 1580 1580 1581 1580 1580 1579 1578 1578 1577 1576 1575 1574 1573 1572 1571 1570 1570 1569 1569 1568 1567 1568 1568 1567 1568 1566 1565 1564 1562 1561 1560 1558 1557 1555 1553 1551
1573 1574 1576 1577 1578 1578 1579 1580 1580 1580 1581 1580 1580 1579 1578 1578 1577 1576 1575 1574 1573 1573 1572 1570 1570 1569 1569 1568 1568 1569 1568 1567 1567 1567 1565 1563 1561 1560 1559 1557 1555 1553 1551
1571 1573 1575 1576 1577 1578 1579 1580 1581 1581 1581 1581 1580 1580 1579 1578 1577 1577 1576 1575 1574 1573 1572 1572 1571 1570 1569 1569 1568 1568 1568 1568 1568 1567 1566 1564 1562 1561 1559 1557 1555 1553 1551
1569 1571 1573 1575 1576 1577 1578 1579 1580 1581 1581 1581 1580 1580 1580 1579 1578 1577 1576 1576 1575 1574 1573 1572 1571 1570 1570 1570 1569 1569 1568 1567 1568 1567 1566 1565 1563 1561 1559 1557 1555 1553 1551
1567 1569 1571 1573 1575 1576 1577 1578 1579 1580 1580 1580 1580 1580 1580 1579 1579 1578 1577 1576 1576 1575 1574 1573 1572 1571 1570 1569 1569 1569 1569 1568 1568 1567 1566 1565 1564 1562 1559 1557 1556 1554 1552